Other Surface Observations
Issued by NWS Upton, NY

Home | Current Version | Previous Version | Text Only | Print | Product List | Glossary On
Versions: 1 2 3 4 5 6 7 8 9 10 11 12 13 14 15 16 17 18 19 20 21 22 23 24 25 26 27 28 29 30 31 32 33 34 35 36 37 38 39 40 41 42 43 44 45 46 47 48 49 50
550
SXUS51 KOKX 170457
OSOOKX
NEW YORK CITY METROPOLITAN AREA WEATHER ROUNDUP
National Weather Service New York NY
1200 AM EST SUN DEC 17 2017

CITY           SKY/WX    TMP DP  RH WIND       PRES   REMARKS
Central Park   CLOUDY    34  21  59 VRB6      30.22R WCI  29
LaGuardia APRT CLOUDY    35  20  54 N8        30.20S WCI  29
Kennedy INTL   CLOUDY    34  22  61 N12       30.22R WCI  25
Newark Liberty CLOUDY    34  24  67 N7        30.21R WCI  28
Teterboro APRT CLOUDY    34  21  59 N5        30.20S WCI  30
Bronx Bot Gard   N/A     32  21  64 N5        30.22R WCI  27
Bronx Lehman C   N/A     32  21  64 NW5         N/A  WCI  27
Queens College   N/A     34  21  60 N10         N/A  WCI  26
Breezy Point     N/A     36 N/A N/A NW8         N/A  WCI  29
Brooklyn Coll    N/A     36  25  64 N6          N/A  WCI  31
Staten Island    N/A     34  25  69 N5          N/A  WCI  30

>>>>>>>>>>>>>>>>>>>>>>>>>>>>>>>>> KEY <<<<<<<<<<<<<<<<<<<<<<<<<<<<<<<
> SKY/WX - SKY CONDITION/PRESENT    : R : WCI - WIND CHILL INDEX    <
>          WEATHER                  : E : VSB - VISIBILITY IN MILES <
> TMP    - TEMPERATURE IN DEG F     : M : HX  - HEAT INDEX          <
> DP     - DEW POINT TEMPERATURE    : A : TC  - TEMPERATURE IN      <
> RH     - RELATIVE HUMIDITY        : R :       CELSIUS             <
> WIND   - DIRECTION/SPEED (MPH)    : K : VRB - VARIABLE WIND  DIR  <
> PRES   - PRESSURE (IN HG)         : S :                           <
>>>>>>>>>>>>>>>>>>>>>>>>>>>>>>>>> KEY <<<<<<<<<<<<<<<<<<<<<<<<<<<<<<<




USA.gov is the U.S. government's official web portal to all federal, state and local government web resources and services.